Location: Austin
(30.3000°N, 97.7500°W)
Time: 02:36:57
(UTC-05:00)

Fermi - Pass Details

Date: 15 May 2024
Orbit: 509 x 523 km, 25.6° (Epoch: 29 May)

Event Time Altitude Azimuth Distance (km) Brightness Sun altitude
Rises 20:52:35 0° 261° (W) 2,603 8.2 -7.5°
Reaches altitude 10° 20:54:54 10° 254° (WSW) 1,720 7.1 -7.9°
Maximum altitude 20:58:39 41° 183° (S) 749 4.3 -8.6°
Enters shadow 21:02:00 13° 114° (ESE) 1,574 5.5 -9.3°
